カタログに戻る

SL-12 DEB

LostHEO
NORAD 35056·DEBRIS·🇷🇺 Russia

打ち上げ Apr 4, 1991 から Baikonur Cosmodrome

Loading…

次のパス (今後24時間)

TLE

古いSource: Space-Track

元期: Jan 30, 2010, 21:06 UTC

1 35056U 91025AA  10030.87953118 -.00001994  00000-0 -16813-1 0  9997
2 35056  65.3186  54.7376 5610935 349.0324   2.6415  4.25227581 10506

AllMySatでSL-12 DEBをリアルタイム追跡

Download on the App Store